Change the Weather History Date:

Thursday, January 19, 2012

  Actual Average Record
Temperature  
Mean Temperature -9 °F -  
Max Temperature -2 °F 14 °F 37 °F (1942)
Min Temperature -16 °F -5 °F -40 °F (1970)
Degree Days  
Heating Degree Days 74    
Moisture  
Dew Point -19 °F    
Average Humidity 69    
Maximum Humidity 84    
Minimum Humidity 55    
Precipitation  
Precipitation 0.00 in - - ()
Sea Level Pressure  
Sea Level Pressure 30.04 in    
Wind  
Wind Speed 9 mph (West)    
Max Wind Speed 13 mph    
Max Gust Speed -    
Visibility 10 miles    
Events      
Averages and records for this station are not official NWS values.
T = Trace of Precipitation, MM = Missing Value Source: NWS Daily Summary

Daily Weather History Graph

Daily Weather History Graph

Search for Another Location

Airport or City:

Trip Planner

Search our weather history database for the weather conditions in past years. The results will help you decide how hot, cold, wet, or windy it might be!

Date:

Astronomy

Jan. 19, 2012 Rise Set
Actual Time 8:01 AM CST 5:06 PM CST
Civil Twilight 7:28 AM CST 5:40 PM CST
Nautical Twilight 6:50 AM CST 6:18 PM CST
Astronomical Twilight 6:14 AM CST 6:54 PM CST
Moon 4:43 AM CST (1/19) 1:35 PM CST (1/19)
Length of Visible Light 10h 12m
Length of Day
9h 05m
Waning Crescent, 15% of the Moon is Illuminated
Jan 19
Waning Crescent
Jan 23
New
Jan 30
First Quarter
Feb 7
Full
Feb 14
Last Quarter

Hourly Weather History & Observations

Time (CST) Temp. Windchill Dew Point Humidity Pressure Visibility Wind Dir Wind Speed Gust Speed Precip Events Conditions
12:13 AM -14.8 °F -34.6 °F -18.4 °F 84% 30.00 in 10.0 mi NW 10.4 mph - N/A   Clear
12:33 AM -14.8 °F -35.6 °F -18.4 °F 84% 30.00 in 10.0 mi NW 11.5 mph - N/A   Clear
12:53 AM -14.8 °F -34.6 °F -20.2 °F 77% 30.00 in 10.0 mi NW 10.4 mph - N/A   Clear
1:13 AM -14.8 °F -35.6 °F -18.4 °F 84% 30.00 in 10.0 mi NW 11.5 mph - N/A   Clear
1:33 AM -14.8 °F -35.6 °F -18.4 °F 84% 30.01 in 10.0 mi WNW 11.5 mph - N/A   Clear
1:53 AM -14.8 °F -33.5 °F -20.2 °F 77% 30.01 in 10.0 mi WNW 9.2 mph - N/A   Clear
2:13 AM -14.8 °F -34.6 °F -20.2 °F 77% 30.02 in 10.0 mi WNW 10.4 mph - N/A   Clear
2:33 AM -14.8 °F -35.6 °F -20.2 °F 77% 30.02 in 10.0 mi WNW 11.5 mph - N/A   Clear
2:53 AM -14.8 °F -36.6 °F -20.2 °F 77% 30.02 in 10.0 mi WNW 12.7 mph - N/A   Clear
3:13 AM -14.8 °F -34.6 °F -20.2 °F 77% 30.03 in 10.0 mi WNW 10.4 mph - N/A   Clear
3:33 AM -14.8 °F -34.6 °F -22.0 °F 70% 30.02 in 10.0 mi WNW 10.4 mph - N/A   Clear
3:53 AM -14.8 °F -33.5 °F -22.0 °F 70% 30.03 in 10.0 mi WNW 9.2 mph - N/A   Clear
4:13 AM -16.6 °F -34.4 °F -22.0 °F 76% 30.03 in 10.0 mi WNW 8.1 mph - N/A   Clear
4:33 AM -16.6 °F -35.7 °F -22.0 °F 76% 30.03 in 10.0 mi WNW 9.2 mph - N/A   Clear
4:53 AM -16.6 °F -34.4 °F -22.0 °F 76% 30.03 in 10.0 mi West 8.1 mph - N/A   Clear
5:13 AM -16.6 °F -34.4 °F -22.0 °F 76% 30.04 in 10.0 mi West 8.1 mph - N/A   Clear
5:33 AM -16.6 °F -34.4 °F -22.0 °F 76% 30.04 in 10.0 mi West 8.1 mph - N/A   Clear
5:53 AM -16.6 °F -35.7 °F -22.0 °F 76% 30.05 in 10.0 mi West 9.2 mph - N/A   Clear
6:13 AM -16.6 °F -34.4 °F -22.0 °F 76% 30.05 in 10.0 mi West 8.1 mph - N/A   Clear
6:33 AM -16.6 °F -32.9 °F -23.8 °F 70% 30.06 in 10.0 mi West 6.9 mph - N/A   Clear
6:53 AM -16.6 °F -31.3 °F -23.8 °F 70% 30.06 in 10.0 mi West 5.8 mph - N/A   Clear
7:13 AM -16.6 °F -31.3 °F -23.8 °F 70% 30.06 in 10.0 mi West 5.8 mph - N/A   Clear
7:33 AM -16.6 °F -31.3 °F -23.8 °F 70% 30.07 in 10.0 mi West 5.8 mph - N/A   Clear
7:53 AM -16.6 °F -26.8 °F -23.8 °F 70% 30.07 in 10.0 mi West 3.5 mph - N/A   Clear
8:13 AM -16.6 °F -31.3 °F -23.8 °F 70% 30.07 in 10.0 mi West 5.8 mph - N/A   Clear
8:33 AM -16.6 °F -31.3 °F -23.8 °F 70% 30.08 in 10.0 mi WSW 5.8 mph - N/A   Clear
8:53 AM -16.6 °F -32.9 °F -22.0 °F 76% 30.08 in 10.0 mi West 6.9 mph - N/A   Clear
9:13 AM -14.8 °F -30.8 °F -22.0 °F 70% 30.08 in 10.0 mi West 6.9 mph - N/A   Clear
9:33 AM -13.0 °F -28.6 °F -22.0 °F 64% 30.08 in 10.0 mi West 6.9 mph - N/A   Clear
9:53 AM -13.0 °F -31.3 °F -22.0 °F 64% 30.09 in 10.0 mi West 9.2 mph - N/A   Clear
10:13 AM -13.0 °F -31.3 °F -20.2 °F 70% 30.10 in 10.0 mi West 9.2 mph - N/A   Clear
10:33 AM -11.2 °F -29.0 °F -20.2 °F 64% 30.10 in 10.0 mi West 9.2 mph - N/A   Clear
10:53 AM -9.4 °F -25.6 °F -20.2 °F 59% 30.09 in 10.0 mi West 8.1 mph - N/A   Clear
11:13 AM -9.4 °F -24.3 °F -20.2 °F 59% 30.09 in 10.0 mi West 6.9 mph - N/A   Clear
11:33 AM -9.4 °F -25.6 °F -18.4 °F 65% 30.09 in 10.0 mi WSW 8.1 mph - N/A   Clear
12:13 PM -7.6 °F -25.7 °F -18.4 °F 59% 30.09 in 10.0 mi SW 10.4 mph - N/A   Clear
12:33 PM -7.6 °F -23.4 °F -16.6 °F 65% 30.08 in 10.0 mi WSW 8.1 mph - N/A   Clear
12:53 PM -5.8 °F -24.4 °F -16.6 °F 60% 30.07 in 10.0 mi WSW 11.5 mph - N/A   Clear
1:13 PM -5.8 °F -19.9 °F -16.6 °F 60% 30.06 in 10.0 mi WSW 6.9 mph - N/A   Clear
1:33 PM -4.0 °F -20.2 °F -14.8 °F 60% 30.06 in 10.0 mi WSW 9.2 mph - N/A   Clear
1:53 PM -4.0 °F -20.2 °F -14.8 °F 60% 30.05 in 10.0 mi WSW 9.2 mph - N/A   Clear
2:33 PM -4.0 °F -17.8 °F -14.8 °F 60% 30.04 in 10.0 mi WSW 6.9 mph - N/A   Clear
2:53 PM -4.0 °F -16.3 °F -14.8 °F 60% 30.03 in 10.0 mi WSW 5.8 mph - N/A   Clear
3:14 PM -2.2 °F -18.9 °F -14.8 °F 55% 30.04 in 10.0 mi WSW 10.4 mph - N/A   Clear
3:33 PM -2.2 °F -18.0 °F -14.8 °F 55% 30.04 in 10.0 mi WSW 9.2 mph - N/A   Clear
3:53 PM -2.2 °F -16.8 °F -14.8 °F 55% 30.04 in 10.0 mi WSW 8.1 mph - N/A   Clear
4:13 PM -2.2 °F -18.0 °F -14.8 °F 55% 30.04 in 10.0 mi WSW 9.2 mph - N/A   Clear
5:13 PM -4.0 °F - -14.8 °F 60% 30.02 in 10.0 mi Calm Calm - N/A   Clear
5:33 PM -4.0 °F -12.4 °F -14.8 °F 60% 30.02 in 10.0 mi SSW 3.5 mph - N/A   Clear
5:54 PM -4.0 °F - -14.8 °F 60% 30.02 in 10.0 mi Calm Calm - N/A   Clear
6:13 PM -4.0 °F - -14.8 °F 60% 30.03 in 10.0 mi Calm Calm - N/A   Clear
6:33 PM -4.0 °F -12.4 °F -14.8 °F 60% 30.03 in 10.0 mi SW 3.5 mph - N/A   Clear
6:54 PM -5.8 °F -14.5 °F -14.8 °F 65% 30.02 in 10.0 mi SW 3.5 mph - N/A   Clear
7:13 PM -5.8 °F -14.5 °F -13.0 °F 71% 30.02 in 10.0 mi SW 3.5 mph - N/A   Clear
7:33 PM -5.8 °F - -13.0 °F 71% 30.02 in 10.0 mi Calm Calm - N/A   Clear
7:53 PM -7.6 °F -20.6 °F -13.0 °F 77% 30.03 in 10.0 mi SSW 5.8 mph - N/A   Clear
8:13 PM -7.6 °F -23.4 °F -13.0 °F 77% 30.02 in 10.0 mi SSW 8.1 mph - N/A   Clear
8:33 PM -7.6 °F -20.6 °F -13.0 °F 77% 30.02 in 10.0 mi SSW 5.8 mph - N/A   Clear
8:53 PM -5.8 °F -18.4 °F -13.0 °F 71% 30.02 in 10.0 mi SW 5.8 mph - N/A   Clear
9:13 PM -5.8 °F -16.7 °F -13.0 °F 71% 30.01 in 10.0 mi SW 4.6 mph - N/A   Clear
9:33 PM -5.8 °F -19.9 °F -13.0 °F 71% 30.02 in 10.0 mi SW 6.9 mph - N/A   Clear
9:53 PM -5.8 °F -19.9 °F -13.0 °F 71% 30.02 in 10.0 mi SW 6.9 mph - N/A   Clear
10:13 PM -5.8 °F -19.9 °F -13.0 °F 71% 30.02 in 10.0 mi SW 6.9 mph - N/A   Clear
10:33 PM -5.8 °F -19.9 °F -13.0 °F 71% 30.02 in 10.0 mi SW 6.9 mph - N/A   Clear
10:53 PM -5.8 °F -21.2 °F -13.0 °F 71% 30.02 in 10.0 mi SW 8.1 mph - N/A   Clear
11:13 PM -5.8 °F -19.9 °F -13.0 °F 71% 30.02 in 10.0 mi SW 6.9 mph - N/A   Clear
11:33 PM -5.8 °F -18.4 °F -13.0 °F 71% 30.02 in 10.0 mi SW 5.8 mph - N/A   Clear
11:53 PM -5.8 °F -18.4 °F -13.0 °F 71% 30.02 in 10.0 mi SW 5.8 mph - N/A   Clear